| time (UTC) | temp C | wind direction | speed KPH | gust KPH | rain 1hr cm | rain 24hr cm | rain mn cm | humidity % | barometer mb |
| 20260506002855 | 14 | 0.0 | 0.0 | 0.00 | 0.00 | 0.00 | 99 | 1008.6 | |
| 20260506001848 | 14 | 0.0 | 0.0 | 0.00 | 0.00 | 0.00 | 99 | 1008.6 | |
| 20260506000840 | 14 | 0.0 | 0.0 | 0.00 | 0.00 | 0.00 | 99 | 1008.7 | |
| 20260505235833 | 13 | 0.0 | 0.0 | 0.00 | 0.00 | 0.00 | 99 | 1008.8 | |
| 20260505234825 | 14 | 0.0 | 0.0 | 0.00 | 0.00 | 0.00 | 99 | 1009.0 | |
| 20260505233818 | 13 | 0.0 | 0.0 | 0.00 | 0.00 | 0.00 | 99 | 1009.1 | |
| 20260505232810 | 14 | 0.0 | 0.0 | 0.00 | 0.00 | 0.00 | 99 | 1009.1 | |
| 20260505231803 | 14 | 0.0 | 0.0 | 0.00 | 0.00 | 0.00 | 99 | 1009.1 | |
| 20260505230756 | 14 | 0.0 | 0.0 | 0.00 | 0.00 | 0.00 | 99 | 1009.1 | |
| 20260505225748 | 15 | 0.0 | 0.0 | 0.00 | 0.00 | 0.00 | 99 | 1009.1 | |
| 20260505224741 | 15 | 0.0 | 0.0 | 0.00 | 0.00 | 0.00 | 99 | 1009.1 | |
| 20260505223733 | 15 | 0.0 | 0.0 | 0.00 | 0.00 | 0.00 | 99 | 1009.0 | |
| 20260505222726 | 15 | 0.0 | 0.0 | 0.00 | 0.00 | 0.00 | 99 | 1008.9 | |
| 20260505221718 | 15 | 0.0 | 0.0 | 0.00 | 0.00 | 0.00 | 99 | 1008.8 | |
| 20260505220711 | 15 | 0.0 | 0.0 | 0.00 | 0.00 | 0.00 | 99 | 1008.6 | |
| 20260505215703 | 15 | 0.0 | 0.0 | 0.00 | 0.00 | 0.00 | 99 | 1008.6 | |
| 20260505214656 | 15 | 0.0 | 0.0 | 0.00 | 0.00 | 0.00 | 99 | 1008.4 | |
| 20260505213649 | 15 | 0.0 | 0.0 | 0.00 | 0.00 | 0.00 | 99 | 1008.3 | |
| 20260505212641 | 15 | 0.0 | 0.0 | 0.00 | 0.00 | 0.00 | 99 | 1008.1 | |
| 20260505211634 | 15 | 0.0 | 0.0 | 0.00 | 0.00 | 0.00 | 99 | 1007.9 | |
| 20260505210626 | 15 | 0.0 | 0.0 | 0.00 | 0.00 | 0.00 | 99 | 1007.8 | |
| 20260505205619 | 15 | 0.0 | 0.0 | 0.00 | 0.00 | 0.00 | 99 | 1007.7 | |
| 20260505204611 | 15 | 0.0 | 0.0 | 0.00 | 0.00 | 0.00 | 99 | 1007.5 | |
| 20260505203604 | 15 | 0.0 | 0.0 | 0.00 | 0.00 | 0.00 | 99 | 1007.3 | |
| 20260505202556 | 15 | 0.0 | 0.0 | 0.00 | 0.00 | 0.00 | 99 | 1007.2 | |
| 20260505201549 | 15 | 0.0 | 0.0 | 0.00 | 0.00 | 0.00 | 99 | 1007.2 | |
| 20260505200541 | 15 | 0.0 | 0.0 | 0.00 | 0.00 | 0.00 | 99 | 1007.1 | |
| 20260505195534 | 15 | 0.0 | 0.0 | 0.00 | 0.00 | 0.00 | 99 | 1006.8 | |
| 20260505194526 | 15 | 0.0 | 0.0 | 0.00 | 0.00 | 0.00 | 99 | 1006.5 | |
| 20260505193519 | 15 | 0.0 | 0.0 | 0.00 | 0.00 | 0.00 | 99 | 1006.3 | |
| 20260505192508 | 15 | 0.0 | 0.0 | 0.00 | 0.00 | 0.00 | 99 | 1006.1 | |
| 20260505191459 | 16 | 0.0 | 0.0 | 0.00 | 0.00 | 0.00 | 99 | 1005.9 | |
| 20260505190451 | 16 | 0.0 | 0.0 | 0.00 | 0.00 | 0.00 | 99 | 1005.8 | |
| 20260505185440 | 16 | 0.0 | 0.0 | 0.00 | 0.00 | 0.00 | 99 | 1005.7 | |
| 20260505184432 | 16 | 0.0 | 0.0 | 0.00 | 0.00 | 0.00 | 99 | 1005.5 | |
| 20260505183424 | 16 | 0.0 | 0.0 | 0.00 | 0.00 | 0.00 | 99 | 1005.4 | |
| 20260505182417 | 17 | 0.0 | 0.0 | 0.00 | 0.00 | 0.00 | 99 | 1005.3 | |
| 20260505181409 | 17 | 0.0 | 0.0 | 0.00 | 0.00 | 0.00 | 99 | 1005.1 | |
| 20260505180402 | 17 | 0.0 | 0.0 | 0.00 | 0.00 | 0.00 | 99 | 1005.0 | |
| 20260505175355 | 17 | 0.0 | 0.0 | 0.00 | 0.00 | 0.00 | 99 | 1005.0 | |
| 20260505174347 | 17 | 0.0 | 0.0 | 0.00 | 0.00 | 0.00 | 99 | 1005.0 | |
| 20260505173340 | 17 | 0.0 | 0.0 | 0.00 | 0.00 | 0.00 | 99 | 1005.0 | |
| 20260505172332 | 17 | 0.0 | 0.0 | 0.00 | 0.00 | 0.00 | 99 | 1005.0 | |
| 20260505171325 | 17 | 0.0 | 0.0 | 0.00 | 0.00 | 0.00 | 99 | 1005.0 | |
| 20260505170317 | 17 | 0.0 | 0.0 | 0.00 | 0.00 | 0.00 | 99 | 1005.0 | |
| 20260505165310 | 17 | 0.0 | 0.0 | 0.00 | 0.00 | 0.00 | 99 | 1005.1 | |
| 20260505164302 | 17 | 0.0 | 0.0 | 0.00 | 0.00 | 0.00 | 99 | 1005.3 | |
| 20260505163255 | 17 | 0.0 | 0.0 | 0.00 | 0.00 | 0.00 | 99 | 1005.5 | |
| 20260505162248 | 17 | 0.0 | 0.0 | 0.00 | 0.00 | 0.00 | 99 | 1005.7 | |
| 20260505161240 | 18 | 0.0 | 0.0 | 0.00 | 0.00 | 0.00 | 99 | 1005.4 | |
| 20260505160232 | 19 | 0.0 | 0.0 | 0.00 | 0.00 | 0.00 | 99 | 1005.0 | |
| 20260505153210 | 22 | 0.0 | 0.0 | 0.00 | 0.00 | 0.00 | 61 | 1004.0 | |
| 20260505152202 | 23 | 0.0 | 0.0 | 0.00 | 0.00 | 0.00 | 59 | 1004.0 | |
| 20260505151155 | 23 | 0.0 | 0.0 | 0.00 | 0.00 | 0.00 | 60 | 1003.9 | |
| 20260505150147 | 23 | 0.0 | 0.0 | 0.00 | 0.00 | 0.00 | 56 | 1004.0 | |
| 20260505125011 | 26 | 0.0 | 0.0 | 0.00 | 0.00 | 0.00 | 41 | 1004.8 | |
| 20260505124003 | 26 | 0.0 | 0.0 | 0.00 | 0.00 | 0.00 | 39 | 1005.0 | |
| 20260505122955 | 26 | 0.0 | 0.0 | 0.00 | 0.00 | 0.00 | 40 | 1005.2 | |
| 20260505121948 | 25 | 0.0 | 0.0 | 0.00 | 0.00 | 0.00 | 40 | 1005.3 | |
| 20260505120940 | 25 | 0.0 | 0.0 | 0.00 | 0.00 | 0.00 | 41 | 1005.5 | |
| 20260505115933 | 25 | 0.0 | 0.0 | 0.00 | 0.00 | 0.00 | 41 | 1005.6 | |
| 20260505114926 | 25 | 0.0 | 0.0 | 0.00 | 0.00 | 0.00 | 43 | 1005.8 | |
| 20260505113918 | 25 | 0.0 | 0.0 | 0.00 | 0.00 | 0.00 | 44 | 1005.9 | |
| 20260505112911 | 25 | 0.0 | 0.0 | 0.00 | 0.00 | 0.00 | 46 | 1006.1 | |
| 20260505111903 | 24 | 0.0 | 0.0 | 0.00 | 0.00 | 0.00 | 47 | 1006.2 | |
| 20260505110856 | 24 | 0.0 | 0.0 | 0.00 | 0.00 | 0.00 | 52 | 1006.3 | |
| 20260505101819 | 22 | 0.0 | 0.0 | 0.00 | 0.00 | 0.00 | 76 | 1007.1 | |
| 20260505100811 | 21 | 0.0 | 0.0 | 0.00 | 0.00 | 0.00 | 83 | 1007.2 | |
| 20260505095804 | 21 | 0.0 | 0.0 | 0.00 | 0.00 | 0.00 | 71 | 1007.3 | |
| 20260505094756 | 21 | 0.0 | 0.0 | 0.00 | 0.00 | 0.00 | 74 | 1007.4 | |
| 20260505093749 | 21 | 0.0 | 0.0 | 0.00 | 0.00 | 0.00 | 95 | 1007.5 | |
| 20260505092742 | 20 | 0.0 | 0.0 | 0.00 | 0.00 | 0.00 | 99 | 1007.6 | |
| 20260505091734 | 20 | 0.0 | 0.0 | 0.00 | 0.00 | 0.00 | 95 | 1007.7 | |
| 20260505090727 | 20 | 0.0 | 0.0 | 0.00 | 0.00 | 0.00 | 96 | 1007.7 | |
| 20260505085719 | 20 | 0.0 | 0.0 | 0.00 | 0.00 | 0.00 | 99 | 1007.7 | |
| 20260505084712 | 20 | 0.0 | 0.0 | 0.00 | 0.00 | 0.00 | 99 | 1007.7 | |
| 20260505083704 | 19 | 0.0 | 0.0 | 0.00 | 0.00 | 0.00 | 99 | 1007.7 | |
| 20260505082657 | 19 | 0.0 | 0.0 | 0.00 | 0.00 | 0.00 | 99 | 1007.8 | |
| 20260505081649 | 18 | 0.0 | 0.0 | 0.00 | 0.00 | 0.00 | 99 | 1007.8 | |
| 20260505080642 | 18 | 0.0 | 0.0 | 0.00 | 0.00 | 0.00 | 99 | 1007.9 | |
| 20260505075634 | 18 | 0.0 | 0.0 | 0.00 | 0.00 | 0.00 | 99 | 1008.0 | |
| 20260505074627 | 17 | 0.0 | 0.0 | 0.00 | 0.00 | 0.00 | 99 | 1008.0 | |
| 20260505073620 | 17 | 0.0 | 0.0 | 0.00 | 0.00 | 0.00 | 99 | 1008.1 | |
| 20260505072612 | 17 | 0.0 | 0.0 | 0.00 | 0.00 | 0.00 | 99 | 1008.2 | |
| 20260505071605 | 17 | 0.0 | 0.0 | 0.00 | 0.00 | 0.00 | 99 | 1008.2 | |
| 20260505070557 | 17 | 0.0 | 0.0 | 0.00 | 0.00 | 0.00 | 99 | 1008.2 | |
| 20260505065549 | 16 | 0.0 | 0.0 | 0.00 | 0.00 | 0.00 | 99 | 1008.3 | |
| 20260505064542 | 16 | 0.0 | 0.0 | 0.00 | 0.00 | 0.00 | 99 | 1008.3 | |
| 20260505063534 | 16 | 0.0 | 0.0 | 0.00 | 0.00 | 0.00 | 99 | 1008.2 | |
| 20260505062527 | 16 | 0.0 | 0.0 | 0.00 | 0.00 | 0.00 | 99 | 1008.2 | |
| 20260505061520 | 15 | 0.0 | 0.0 | 0.00 | 0.00 | 0.00 | 99 | 1008.3 | |
| 20260505060512 | 15 | 0.0 | 0.0 | 0.00 | 0.00 | 0.00 | 99 | 1008.4 | |
| 20260505055505 | 15 | 0.0 | 0.0 | 0.00 | 0.00 | 0.00 | 99 | 1008.4 | |
| 20260505054457 | 14 | 0.0 | 0.0 | 0.00 | 0.00 | 0.00 | 99 | 1008.5 | |
| 20260505053449 | 14 | 0.0 | 0.0 | 0.00 | 0.00 | 0.00 | 99 | 1008.5 | |
| 20260505052442 | 13 | 0.0 | 0.0 | 0.00 | 0.00 | 0.00 | 99 | 1008.5 | |
| 20260505051434 | 13 | 0.0 | 0.0 | 0.00 | 0.00 | 0.00 | 99 | 1008.5 | |
| 20260505050427 | 13 | 0.0 | 0.0 | 0.00 | 0.00 | 0.00 | 99 | 1008.4 | |
| 20260505041350 | 13 | 0.0 | 0.0 | 0.00 | 0.00 | 0.00 | 99 | 1008.6 | |
| 20260505040342 | 13 | 0.0 | 0.0 | 0.00 | 0.00 | 0.00 | 99 | 1008.7 | |
| 20260505035335 | 13 | 0.0 | 0.0 | 0.00 | 0.00 | 0.00 | 99 | 1008.7 | |
| 20260505034327 | 13 | 0.0 | 0.0 | 0.00 | 0.00 | 0.00 | 99 | 1008.7 | |
| 20260505033320 | 13 | 0.0 | 0.0 | 0.00 | 0.00 | 0.00 | 99 | 1008.7 | |
| 20260505032313 | 13 | 0.0 | 0.0 | 0.00 | 0.00 | 0.00 | 99 | 1008.8 | |
| 20260505031305 | 13 | 0.0 | 0.0 | 0.00 | 0.00 | 0.00 | 99 | 1008.9 | |
| 20260505030257 | 14 | 0.0 | 0.0 | 0.00 | 0.00 | 0.00 | 99 | 1009.0 | |
| 20260505025250 | 14 | 0.0 | 0.0 | 0.00 | 0.00 | 0.00 | 99 | 1009.0 | |
| 20260505024242 | 14 | 0.0 | 0.0 | 0.00 | 0.00 | 0.00 | 99 | 1009.1 | |
| 20260505023235 | 14 | 0.0 | 0.0 | 0.00 | 0.00 | 0.00 | 99 | 1009.2 | |
| 20260505022228 | 14 | 0.0 | 0.0 | 0.00 | 0.00 | 0.00 | 99 | 1009.3 | |
| 20260505021220 | 15 | 0.0 | 0.0 | 0.00 | 0.00 | 0.00 | 99 | 1009.4 | |
| 20260505020213 | 15 | 0.0 | 0.0 | 0.00 | 0.00 | 0.00 | 99 | 1009.5 | |
| 20260505015205 | 15 | 0.0 | 0.0 | 0.00 | 0.00 | 0.00 | 99 | 1009.5 | |
| 20260505014158 | 15 | 0.0 | 0.0 | 0.00 | 0.00 | 0.00 | 99 | 1009.6 | |
| 20260505013150 | 15 | 0.0 | 0.0 | 0.00 | 0.00 | 0.00 | 99 | 1009.6 | |
| 20260505012142 | 15 | 0.0 | 0.0 | 0.00 | 0.00 | 0.00 | 99 | 1009.6 | |
| 20260505011135 | 16 | 0.0 | 0.0 | 0.00 | 0.00 | 0.00 | 99 | 1009.7 | |
| 20260505010128 | 16 | 0.0 | 0.0 | 0.00 | 0.00 | 0.00 | 99 | 1009.8 | |
| 20260505005120 | 16 | 0.0 | 0.0 | 0.00 | 0.00 | 0.00 | 99 | 1009.9 | |
| 20260505004113 | 16 | 0.0 | 0.0 | 0.00 | 0.00 | 0.00 | 99 | 1010.0 |